Terug naar catalogus

STARLINK-11708

ActiefCommunicatieVLEO
NORAD 64238·PAYLOAD·🇺🇸 United States

Gelanceerd Jun 3, 2025 vanaf Cape Canaveral Space Force Station

Loading…

Volgende Passages (komende 24 uur)

TLE

VersSource: CelesTrak SupGP

Epoch: Sep 15, 2026, 02:47 UTC

1 64238C 25119F   26258.11645833  .00040853  00000+0  31730-3 0  2589
2 64238  43.0003 147.6705 0001728 270.4566  53.8652 15.70818233    11

Volg STARLINK-11708 in realtime met AllMySat

Download on the App Store